Location: LDNL
(36.4545°S, 141.6685°E)
Time: 04:44:47
(UTC+11:00)

A-11 Canister half - Pass Details

Date: 13 August 2022
Orbit: 1524 x 1684 km, 47.3° (Epoch: 05 October)

Event Time Altitude Azimuth Distance (km) Brightness Sun altitude
Rises 23:02:39 0° 238° (WSW) 4,699 12.0 -59.5°
Reaches altitude 10° 23:05:41 10° 236° (SW) 3,723 11.3 -59.9°
Enters shadow 23:06:57 15° 235° (SW) 3,330 11.0 -60.1°
Maximum altitude 23:15:08 77° 149° (SSE) 1,605 - -61.3°
Drops below altitude 10° 23:24:49 10° 63° (ENE) 3,809 - -62.7°
Sets 23:27:57 0° 61° (ENE) 4,813 - -63.1°
